When you browse on this site, cookies collect data to enhance your experience and personalize the content and advertising you see.
Visit our Privacy Policy to learn more. By continuing to use the site, you agree to this use of cookies and data.
  • In Austria
  • List of Countries
  • For 7 days
  • Water Temperature
  • Satellite Maps
  • Weather Map
  • News
  • Weather Widgets
  • user-avatar
    Login

    Hourly Weather Shkoder

    Today, 18 April, Thursday

    Time Temperature Precipitation Wind Pressure Humidity
    00:00 +10°C° 0 mm 2 mps 742 mmHg 69%
    01:00 +10°C° 0 mm 3 mps 742 mmHg 70%
    02:00 +9°C° 0 mm 3 mps 742 mmHg 71%
    03:00 +9°C° 0 mm 3 mps 742 mmHg 72%
    04:00 +9°C° 0 mm 3 mps 742 mmHg 73%
    05:00 +10°C° 0 mm 3 mps 743 mmHg 70%
    06:00 +11°C° 0 mm 3 mps 743 mmHg 68%
    07:00 +12°C° 0 mm 3 mps 743 mmHg 64%
    08:00 +13°C° 0 mm 3 mps 743 mmHg 59%
    09:00 +16°C° 0 mm 3 mps 743 mmHg 53%
    10:00 +17°C° 0 mm 3 mps 743 mmHg 48%
    11:00 +17°C° 0.1 mm 3 mps 743 mmHg 47%
    12:00 +18°C° 0.1 mm 3 mps 743 mmHg 45%
    13:00 +18°C° 0.1 mm 3 mps 743 mmHg 44%
    14:00 +18°C° 0.1 mm 3 mps 743 mmHg 44%
    15:00 +18°C° 0.1 mm 3 mps 743 mmHg 44%
    16:00 +18°C° 0.1 mm 3 mps 743 mmHg 45%
    17:00 +16°C° 0 mm 3 mps 743 mmHg 50%
    18:00 +14°C° 0 mm 3 mps 744 mmHg 55%
    19:00 +12°C° 0 mm 3 mps 744 mmHg 60%
    20:00 +11°C° 0 mm 3 mps 745 mmHg 63%
    21:00 +11°C° 0 mm 3 mps 745 mmHg 66%
    22:00 +10°C° 0 mm 3 mps 746 mmHg 69%
    23:00 +10°C° 0 mm 3 mps 746 mmHg 70%

    Tomorrow, 19 April, Friday

    Time Temperature Precipitation Wind Pressure Humidity
    00:00 +9°C° 0 mm 3 mps 746 mmHg 71%
    01:00 +9°C° 0 mm 3 mps 746 mmHg 72%
    02:00 +9°C° 0 mm 3 mps 746 mmHg 72%
    03:00 +9°C° 0 mm 3 mps 747 mmHg 72%
    04:00 +8°C° 0 mm 3 mps 747 mmHg 72%
    05:00 +10°C° 0 mm 3 mps 747 mmHg 69%
    06:00 +11°C° 0 mm 3 mps 747 mmHg 66%
    07:00 +12°C° 0 mm 3 mps 747 mmHg 63%
    08:00 +14°C° 0 mm 3 mps 747 mmHg 56%
    09:00 +16°C° 0 mm 2 mps 747 mmHg 50%
    10:00 +18°C° 0 mm 2 mps 747 mmHg 44%
    11:00 +19°C° 0 mm 2 mps 747 mmHg 43%
    12:00 +19°C° 0 mm 2 mps 746 mmHg 41%
    13:00 +20°C° 0 mm 2 mps 746 mmHg 40%
    14:00 +20°C° 0 mm 2 mps 746 mmHg 42%
    15:00 +20°C° 0 mm 2 mps 746 mmHg 43%
    16:00 +19°C° 0 mm 2 mps 745 mmHg 45%
    17:00 +18°C° 0 mm 2 mps 745 mmHg 51%
    18:00 +16°C° 0 mm 2 mps 746 mmHg 57%
    19:00 +14°C° 0 mm 2 mps 746 mmHg 63%
    20:00 +14°C° 0 mm 2 mps 746 mmHg 64%
    21:00 +12°C° 0 mm 3 mps 746 mmHg 65%
    22:00 +11°C° 0 mm 3 mps 746 mmHg 65%
    23:00 +11°C° 0 mm 3 mps 746 mmHg 67%

    Day after tomorrow, 20 April, Saturday

    Time Temperature Precipitation Wind Pressure Humidity
    00:00 +11°C° 0 mm 3 mps 746 mmHg 68%
    01:00 +10°C° 0 mm 3 mps 746 mmHg 70%
    02:00 +10°C° 0 mm 3 mps 746 mmHg 70%
    03:00 +9°C° 0 mm 3 mps 746 mmHg 70%
    04:00 +9°C° 0 mm 3 mps 746 mmHg 70%
    05:00 +10°C° 0 mm 3 mps 746 mmHg 66%
    06:00 +11°C° 0 mm 3 mps 746 mmHg 61%
    07:00 +12°C° 0 mm 3 mps 746 mmHg 57%
    08:00 +14°C° 0 mm 3 mps 746 mmHg 52%
    09:00 +16°C° 0 mm 3 mps 746 mmHg 46%
    10:00 +18°C° 0 mm 3 mps 746 mmHg 41%
    11:00 +18°C° 0 mm 3 mps 746 mmHg 40%
    12:00 +19°C° 0 mm 3 mps 745 mmHg 39%
    13:00 +19°C° 0 mm 3 mps 745 mmHg 38%
    14:00 +19°C° 0 mm 3 mps 745 mmHg 39%
    15:00 +19°C° 0 mm 2 mps 745 mmHg 40%
    16:00 +19°C° 0 mm 2 mps 745 mmHg 41%
    17:00 +17°C° 0 mm 2 mps 745 mmHg 46%
    18:00 +15°C° 0 mm 2 mps 745 mmHg 52%
    19:00 +14°C° 0 mm 2 mps 745 mmHg 57%
    20:00 +13°C° 0 mm 2 mps 745 mmHg 59%
    21:00 +11°C° 0 mm 3 mps 746 mmHg 62%
    22:00 +11°C° 0 mm 3 mps 746 mmHg 64%
    23:00 +10°C° 0 mm 3 mps 746 mmHg 65%

    21 April, Sunday

    Time Temperature Precipitation Wind Pressure Humidity
    00:00 +10°C° 0 mm 3 mps 746 mmHg 66%
    01:00 +10°C° 0 mm 3 mps 746 mmHg 66%
    02:00 +9°C° 0 mm 3 mps 746 mmHg 66%
    03:00 +9°C° 0 mm 3 mps 745 mmHg 65%
    04:00 +9°C° 0 mm 3 mps 745 mmHg 64%
    05:00 +10°C° 0 mm 2 mps 745 mmHg 62%
    06:00 +12°C° 0 mm 2 mps 745 mmHg 60%
    07:00 +13°C° 0 mm 2 mps 745 mmHg 58%
    08:00 +15°C° 0 mm 2 mps 745 mmHg 55%
    09:00 +16°C° 0 mm 2 mps 745 mmHg 52%
    10:00 +17°C° 0 mm 2 mps 745 mmHg 49%
    11:00 +18°C° 0 mm 2 mps 744 mmHg 51%
    12:00 +18°C° 0 mm 3 mps 744 mmHg 54%
    13:00 +18°C° 0 mm 3 mps 744 mmHg 56%
    14:00 +18°C° 0 mm 3 mps 743 mmHg 58%
    15:00 +18°C° 0 mm 2 mps 743 mmHg 59%
    16:00 +18°C° 0 mm 2 mps 743 mmHg 61%
    17:00 +16°C° 0 mm 2 mps 743 mmHg 70%
    18:00 +15°C° 0 mm 1 mps 743 mmHg 80%
    19:00 +13°C° 0 mm 1 mps 743 mmHg 89%
    20:00 +13°C° 0 mm 1 mps 743 mmHg 91%
    21:00 +12°C° 0 mm 1 mps 743 mmHg 92%
    22:00 +12°C° 0 mm 1 mps 743 mmHg 94%
    23:00 +12°C° 0 mm 1 mps 743 mmHg 93%

    22 April, Monday

    Time Temperature Precipitation Wind Pressure Humidity
    00:00 +11°C° 0 mm 1 mps 743 mmHg 92%
    01:00 +11°C° 0 mm 1 mps 743 mmHg 91%
    02:00 +11°C° 0 mm 1 mps 743 mmHg 89%
    03:00 +11°C° 0 mm 1 mps 742 mmHg 86%
    04:00 +11°C° 0 mm 1 mps 742 mmHg 84%
    05:00 +12°C° 0 mm 1 mps 742 mmHg 78%
    06:00 +13°C° 0 mm 1 mps 742 mmHg 73%
    07:00 +14°C° 0 mm 1 mps 742 mmHg 68%
    08:00 +16°C° 0 mm 1 mps 741 mmHg 60%
    09:00 +19°C° 0 mm 1 mps 741 mmHg 51%
    10:00 +21°C° 0 mm 1 mps 741 mmHg 43%
    11:00 +21°C° 0 mm 1 mps 740 mmHg 42%
    12:00 +21°C° 0 mm 2 mps 740 mmHg 42%
    13:00 +23°C° 0 mm 2 mps 740 mmHg 42%
    14:00 +21°C° 0 mm 2 mps 739 mmHg 44%
    15:00 +21°C° 0 mm 3 mps 739 mmHg 47%
    16:00 +20°C° 0 mm 3 mps 739 mmHg 50%
    17:00 +18°C° 0 mm 2 mps 739 mmHg 62%
    18:00 +16°C° 0 mm 2 mps 739 mmHg 73%
    19:00 +14°C° 0 mm 1 mps 739 mmHg 85%
    20:00 +14°C° 0.2 mm 1 mps 739 mmHg 84%
    21:00 +14°C° 0.2 mm 1 mps 740 mmHg 83%
    22:00 +14°C° 0.2 mm 2 mps 740 mmHg 83%
    23:00 +14°C° 0.1 mm 2 mps 739 mmHg 82%

    23 April, Tuesday

    Time Temperature Precipitation Wind Pressure Humidity
    00:00 +14°C° 0.1 mm 2 mps 739 mmHg 82%
    01:00 +14°C° 0.1 mm 3 mps 739 mmHg 81%
    02:00 +13°C° 0 mm 3 mps 738 mmHg 81%
    03:00 +13°C° 0 mm 3 mps 738 mmHg 80%
    04:00 +13°C° 0 mm 3 mps 738 mmHg 80%
    05:00 +13°C° 0 mm 3 mps 738 mmHg 76%
    06:00 +14°C° 0 mm 4 mps 737 mmHg 72%
    07:00 +15°C° 0 mm 4 mps 737 mmHg 69%
    08:00 +18°C° 0 mm 4 mps 737 mmHg 61%
    09:00 +20°C° 0 mm 3 mps 738 mmHg 53%
    10:00 +22°C° 0 mm 3 mps 738 mmHg 45%
    11:00 +22°C° 0 mm 3 mps 737 mmHg 45%
    12:00 +22°C° 0 mm 3 mps 737 mmHg 44%
    13:00 +22°C° 0 mm 4 mps 737 mmHg 44%
    14:00 +21°C° 0 mm 3 mps 737 mmHg 49%
    15:00 +20°C° 0 mm 2 mps 737 mmHg 55%
    16:00 +19°C° 0 mm 2 mps 737 mmHg 60%
    17:00 +18°C° 0 mm 2 mps 737 mmHg 62%
    18:00 +18°C° 0 mm 1 mps 737 mmHg 63%
    19:00 +18°C° 0 mm 1 mps 738 mmHg 65%
    20:00 +18°C° 0 mm 1 mps 738 mmHg 65%
    21:00 +16°C° 0 mm 1 mps 739 mmHg 65%
    22:00 +16°C° 0 mm 1 mps 739 mmHg 65%
    23:00 +16°C° 0.1 mm 1 mps 739 mmHg 68%
    Show more